Home > Time Zones > World Clock > Weather > Ghana > Accra > Past weeks

Flag for Ghana Weather past 2 weeks in Accra, Ghana

Now
77 °F

Partly cloudy.


Feels Like: 78 °F
Forecast: 74 / 84 °F
Wind: 9 mph from Southwest

Location: Accra Airport

Current Time: Jul 6, 2015 at 3:33:48 AM

Latest Report: Jul 6, 2015 at 2:53 AM


Visibility: N/A

Pressure: 29.86 "Hg

Humidity: 94%

Dew point: 75 °F

Location of AccraLocation

Historic Weather in Accra — Graph

°F

Accra temperature yesterday

Maximum temperature yesterday: 82 °F (at 12:00 PM)
Minimum temperature yesterday: 75 °F (at 6:00 AM)
Average temperature yesterday: 79 °F

Past Weeks' High & Low Weather Summary

 TemperatureHumidityPressure
High144 °F (Jun 29, 10:00 PM)100% (Jun 21, 6:53 AM)30.09 "Hg (Jun 21, 6:53 AM)
Low72 °F (Jul 2, 8:00 PM)13% (Jun 29, 10:00 PM)29.86 "Hg (Jul 2, 3:00 PM)
Average79 °F87%29.98 "Hg
* Reported Jun 21 3:00 AM — Jul 6 1:45 AM, Accra, Weather by CustomWeather, © 2015

Note: Actual official high and low records may vary slightly from our data, if they occured in-between our weather recording intervals... More about our weather records

Advertising

Accra weather history for previous 24 hours

 ConditionsComfort  
Time TempWeatherWind HumidityBarometerVisibility
1:45 AM
Mon, Jul 6
77 °FMostly cloudy.10 mph94%29.86 "HgN/A
1:00 AM77 °FPassing clouds.12 mph94%29.89 "HgN/A
12:00 AM77 °FPassing clouds.12 mph94%29.89 "HgN/A
11:00 PM
Sun, Jul 5
77 °FPassing clouds.13 mph94%29.92 "HgN/A
10:00 PM77 °FPartly cloudy.10 mph94%29.92 "HgN/A
9:00 PM77 °FPassing clouds.9 mph94%29.89 "HgN/A
7:00 PM77 °FClear.12 mph89%29.89 "Hg10 mi
5:00 PM81 °FScattered clouds.15 mph74%29.86 "HgN/A
4:00 PM82 °FPassing clouds.12 mph70%29.86 "HgN/A
2:00 PM82 °FScattered clouds.12 mph74%29.89 "HgN/A
1:00 PM82 °FMostly cloudy.13 mph79%29.92 "HgN/A
12:00 PM82 °FMostly cloudy.10 mph74%29.95 "HgN/A
11:00 AM81 °FPartly sunny.12 mph79%29.95 "HgN/A
10:00 AM81 °FOvercast.13 mph79%29.95 "HgN/A
9:00 AM79 °FPassing clouds.10 mph84%29.95 "HgN/A
8:00 AM77 °FPartly sunny.7 mph94%29.95 "HgN/A
7:00 AM77 °FScattered clouds.6 mph94%29.92 "HgN/A
6:00 AM75 °FBroken clouds.7 mph100%29.92 "HgN/A
5:00 AM77 °FPassing clouds.6 mph94%29.92 "HgN/A
4:00 AM77 °FLow clouds.6 mph89%29.92 "HgN/A
3:00 AM77 °FPassing clouds.6 mph94%29.92 "HgN/A
Weather by CustomWeather, © 2015

See weather overviewHow to use our weather pages